Wetbulb
64.08 62.93 62.60 63.07 63.29 63.51 63.50 63.32 62.79 62.47 62.01 62.02 62.04 61.87 61.91 61.83 61.34 61.12 61.72 61.96 62.11 62.92 62.89 62.64 62.99 63.22 60.01 54.04 52.33 58.07 66.11 65.55 60.33 60.26 59.57 58.52 56.27 54.98 52.04 50.69 50.11 48.62 46.73 46.60 46.40 46.27 46.95
64.97 63.78 62.71 62.60 63.04 63.21 63.22 63.12 62.78 62.50 62.33 62.32 62.17 61.81 61.84 61.51 61.19 60.80 61.23 61.77 61.69 62.27 62.21 62.35 63.02 61.47 56.09 50.62 55.76 57.84 57.76 57.79 58.18 57.93 57.33 58.28 56.34 56.32 52.08 48.75 48.57 48.47 47.32 46.01 46.25 45.52 45.36
64.66 64.65 63.25 62.58 62.63 63.00 62.94 62.93 62.72 62.41 62.33 62.43 62.52 62.20 61.73 61.39 61.00 60.90 61.19 61.36 61.23 61.55 61.75 62.06 62.85 58.99 53.22 51.39 55.90 57.95 57.86 56.96 58.10 58.05 55.75 57.34 56.80 54.41 52.36 47.18 48.89 48.08 44.89 45.32 45.31 45.65 44.29
64.34 65.02 63.80 62.99 62.55 62.79 62.86 62.91 62.69 62.34 62.17 62.31 62.26 62.03 61.78 61.38 60.91 60.81 60.93 60.85 60.83 61.11 61.87 62.43 61.48 54.72 51.35 54.91 57.01 55.08 56.96 56.34 57.54 58.19 56.51 56.28 56.27 52.60 50.88 49.89 47.62 46.09 46.89 44.72 45.40 44.99 43.36
64.34 64.93 63.97 63.17 62.59 62.73 62.98 63.07 62.81 62.33 62.04 62.08 61.89 61.58 61.34 61.23 60.89 60.82 60.41 60.32 60.89 61.52 61.92 61.30 55.89 53.41 49.93 56.69 53.02 54.58 55.81 54.21 55.30 55.31 54.75 54.40 54.25 50.68 49.49 47.85 46.19 46.25 43.64 43.57 43.59 45.49 43.99
63.91 63.90 63.46 63.21 62.74 62.58 62.80 63.07 62.98 62.34 61.87 61.77 61.56 61.07 60.77 60.56 60.62 60.43 59.66 59.79 61.04 58.69 60.02 56.67 53.96 51.26 51.21 50.34 52.60 53.07 55.36 55.46 53.36 53.25 52.69 52.50 51.94 49.98 49.26 47.37 42.30 42.50 42.77 43.20 42.73 44.09 42.88
61.50 61.41 61.21 60.77 60.66 60.79 60.96 61.39 62.49 62.44 61.64 61.47 61.25 60.73 60.21 60.29 60.34 59.58 59.83 58.54 56.06 54.15 54.46 52.10 51.26 50.11 50.32 52.32 53.28 52.05 53.28 52.87 52.97 51.67 48.77 50.81 47.84 46.77 46.81 46.01 44.83 43.72 42.75 42.36 43.97 43.83 41.97
60.32 60.00 59.69 59.70 60.06 60.47 61.00 61.51 61.71 62.36 61.63 61.24 61.00 60.47 59.90 59.75 59.25 58.17 58.53 56.50 54.83 55.61 51.79 52.82 51.65 51.16 51.79 52.61 49.03 50.48 53.01 49.64 49.35 47.41 49.17 48.11 46.27 46.20 45.32 44.44 43.51 43.31 42.44 43.09 42.91 42.35 41.01
58.57 58.90 58.49 58.33 58.81 59.63 60.18 60.71 61.85 61.82 61.24 60.47 60.43 59.98 59.57 59.31 58.27 59.70 58.77 56.40 59.47 58.02 51.29 50.17 51.40 51.03 50.69 51.36 49.18 49.03 50.90 50.00 48.33 47.21 47.31 45.75 45.37 44.78 43.86 43.83 42.77 43.91 41.75 41.50 39.89 41.63 42.71
56.79 56.95 57.59 57.21 57.89 58.31 58.92 59.53 61.27 61.43 60.90 59.75 59.57 59.39 59.25 58.49 58.10 58.43 57.34 58.36 60.09 58.95 47.38 46.69 48.19 50.04 50.80 51.09 47.98 50.24 51.12 50.11 47.70 45.77 45.92 45.47 44.78 43.43 43.37 43.06 42.65 41.41 41.35 40.33 40.06 40.27 40.52
55.53 55.86 56.41 56.13 56.09 56.78 56.94 57.56 58.88 59.74 60.12 59.47 59.00 58.74 58.49 57.48 56.99 57.25 57.32 59.16 60.53 56.73 39.60 46.53 47.79 52.91 50.92 48.70 48.52 48.24 50.95 49.79 46.72 45.81 45.83 42.89 42.50 42.13 42.25 42.11 41.92 41.02 41.39 40.98 41.13 40.38 41.02
53.86 53.58 54.71 56.40 54.64 55.41 55.85 55.97 57.17 58.32 59.13 58.91 58.64 58.39 57.65 60.37 59.39 57.67 59.00 59.25 57.55 46.23 39.05 44.79 48.14 47.25 47.05 48.21 47.89 48.63 48.71 50.28 48.82 45.70 45.75 43.85 43.92 42.87 42.44 41.27 41.06 42.20 41.45 42.21 41.87 41.77 38.64
53.20 53.09 53.36 55.14 54.48 53.97 54.83 55.32 55.67 56.34 57.42 57.65 57.75 57.81 57.82 60.75 56.54 59.04 58.92 56.45 46.17 41.42 46.59 44.26 45.40 46.74 46.87 46.15 46.38 46.72 46.19 45.56 44.51 41.44 42.25 42.54 42.18 41.62 41.67 40.60 41.89 41.15 41.65 40.30 39.51 38.69 39.25
53.28 53.42 53.23 53.45 54.58 53.23 52.94 53.99 54.82 55.43 56.15 55.99 56.18 56.09 59.76 60.09 59.99 58.65 57.20 50.31 41.40 44.73 44.85 47.35 46.48 46.21 44.86 46.41 45.79 45.66 45.19 44.23 46.37 44.72 42.69 41.49 39.17 40.93 40.96 40.71 39.46 41.23 40.58 38.76 34.18 37.36 38.82
53.67 53.43 53.32 53.04 53.49 53.18 53.18 53.02 53.69 55.01 55.54 55.59 54.53 61.65 60.22 58.84 58.07 57.89 53.32 44.79 44.79 46.36 47.19 45.96 45.58 44.25 44.78 45.37 44.87 45.01 45.44 45.43 45.80 45.88 42.04 41.46 39.64 39.70 39.35 39.90 39.88 40.05 39.53 40.73 38.76 39.29 36.82
53.82 53.47 53.41 52.91 52.43 52.06 52.04 52.74 52.99 53.86 54.81 54.78 58.42 59.52 58.79 57.01 58.07 55.51 50.25 45.13 47.12 48.12 48.09 47.67 44.41 46.04 43.83 45.20 43.82 44.69 45.66 45.91 44.64 44.59 45.94 44.06 39.29 39.59 38.81 39.81 39.99 39.19 40.65 38.52 39.81 34.96 34.95
53.99 53.65 53.64 53.11 52.41 51.83 51.64 51.59 52.10 53.12 54.16 54.46 56.47 55.12 54.99 57.11 56.90 52.17 45.52 47.09 48.75 49.12 49.52 47.25 46.34 45.42 45.89 44.94 45.68 45.01 44.95 44.26 44.98 43.60 45.26 44.77 42.03 38.38 39.21 38.62 40.49 38.16 38.82 38.36 38.88 39.06 36.49
54.29 53.73 53.79 53.42 52.40 51.66 51.32 50.80 51.81 52.55 53.26 52.89 56.68 49.88 55.88 56.45 49.21 50.12 47.16 48.82 47.22 49.03 49.68 48.86 48.24 47.47 46.35 46.33 45.51 45.38 44.89 45.68 45.65 45.65 42.67 45.03 43.53 39.75 39.81 39.39 39.71 39.57 39.91 40.59 38.16 38.38 38.22
54.48 54.06 53.76 53.55 52.52 51.51 51.17 50.29 50.69 51.84 52.81 56.78 53.59 54.12 55.90 54.86 46.96 47.70 48.96 47.18 48.23 48.20 48.37 47.87 47.04 48.62 48.71 46.35 43.99 46.67 45.67 44.28 44.43 44.51 43.91 44.49 42.24 38.66 37.06 37.96 38.98 37.77 39.99 40.09 40.07 39.51 37.82
55.11 54.57 53.82 53.66 53.00 51.86 51.23 50.27 49.98 51.12 52.72 54.73 53.28 47.56 51.43 51.56 52.94 49.22 48.03 46.74 45.79 49.56 48.95 49.35 48.11 48.78 47.11 45.97 47.75 45.40 45.09 43.54 43.85 43.90 43.39 44.63 43.63 41.65 39.06 40.67 42.17 37.77 38.05 38.59 39.43 38.00 39.74
55.53 55.07 54.41 53.70 53.53 51.94 51.49 50.52 50.09 50.32 51.60 53.59 52.49 49.40 50.50 46.25 47.86 48.52 49.15 47.41 46.40 45.53 48.31 49.26 47.12 47.12 46.20 44.08 45.38 44.42 46.77 43.04 42.71 45.18 43.71 44.26 41.55 43.93 43.47 43.04 40.65 40.19 40.36 37.92 36.03 39.67 38.56
55.57 55.01 55.03 54.39 53.83 52.20 51.78 50.91 50.21 49.77 51.04 53.12 50.80 49.02 50.00 48.83 47.11 48.23 46.37 45.97 45.89 47.16 47.74 45.71 45.46 47.43 47.36 45.27 46.42 44.80 46.85 46.51 45.84 44.08 43.48 44.42 41.53 41.59 40.77 43.23 41.37 38.24 40.19 40.20 39.33 38.98 39.46
55.61 54.93 54.60 54.49 53.90 52.55 52.21 51.31 50.23 49.96 50.90 52.63 55.36 52.59 50.01 46.64 46.76 45.60 46.12 46.47 46.71 48.35 48.86 49.21 48.12 47.26 46.25 47.78 49.82 49.87 49.57 48.36 48.50 45.74 43.57 43.26 42.28 40.35 38.42 40.45 39.34 37.43 40.05 40.68 41.01 41.70 41.08
55.75 54.84 54.25 54.29 53.77 52.64 52.36 51.56 50.29 50.02 50.52 52.94 54.51 54.04 48.66 44.89 45.88 45.53 46.06 47.12 46.63 47.82 46.52 48.15 47.78 47.12 47.18 48.66 48.34 47.69 46.71 45.73 46.19 45.36 47.26 43.33 42.94 42.43 38.98 41.65 32.56 43.65 42.57 41.74 43.08 43.10 43.69
55.94 55.05 54.17 54.04 53.73 52.65 52.20 51.85 50.77 49.76 50.16 52.10 53.85 52.33 50.19 45.55 47.64 46.45 46.47 45.92 47.03 48.12 46.90 47.49 45.36 45.62 48.59 47.02 44.88 41.81 41.97 41.86 42.55 42.92 42.34 44.14 43.81 40.91 37.50 37.67 41.67 43.65 42.62 39.06 39.31 42.10 44.49
56.11 55.37 54.44 53.84 53.41 52.62 51.89 52.34 51.06 49.85 50.95 50.17 52.77 53.74 52.12 46.51 45.56 48.20 46.53 47.33 45.18 45.27 45.75 45.43 43.85 46.38 46.39 45.87 44.25 39.47 38.12 41.24 39.79 36.92 40.19 41.04 42.07 41.73 38.81 36.04 33.32 41.69 40.86 42.26 42.04 39.13 44.60
56.11 55.45 54.71 53.95 53.18 52.63 52.07 52.49 51.48 50.57 50.84 49.06 48.74 53.92 52.36 47.27 48.69 48.74 45.66 46.08 48.97 47.75 45.64 44.89 41.81 41.87 44.95 44.16 41.87 39.99 39.71 44.73 39.19 37.68 34.92 36.50 38.25 36.27 37.45 37.48 40.69 46.75 42.07 42.45 37.55 41.20 44.74
56.39 55.70 54.82 53.99 53.12 52.59 52.16 52.43 51.62 50.83 50.03 49.09 46.70 52.67 50.62 48.26 49.03 48.95 49.80 47.55 48.19 47.91 44.68 44.10 42.47 41.99 41.02 41.00 42.13 41.80 41.39 43.61 41.95 43.66 39.28 37.54 36.36 35.55 38.18 37.54 33.49 43.69 40.35 40.18 45.68 45.91 45.08
56.96 55.88 54.83 53.92 53.03 52.38 52.03 52.04 51.80 50.95 50.09 49.46 43.68 50.01 51.15 47.63 47.98 50.74 51.07 51.09 48.44 46.77 48.16 46.65 46.73 45.29 46.37 42.82 44.47 45.07 42.48 43.55 43.02 38.30 44.92 39.34 43.39 42.20 42.12 41.22 46.75 44.96 46.27 46.96 44.43 43.90 46.11
MSLP
1021.06 1020.97 1020.93 1020.78 1020.61 1020.43 1020.27 1020.12 1020.00 1019.79 1019.53 1019.24 1018.98 1018.73 1018.41 1018.13 1017.79 1017.43 1017.12 1016.85 1016.63 1016.33 1015.97 1015.63 1015.30 1015.05 1014.55 1013.21 1013.28 1013.62 1013.82 1013.69 1013.22 1012.94 1012.45 1012.24 1011.95 1012.29 1012.60 1013.58 1014.14 1014.58 1016.01 1016.82 1017.46 1017.73 1017.78
1020.98 1020.99 1020.96 1020.86 1020.74 1020.52 1020.32 1020.15 1020.00 1019.74 1019.49 1019.21 1018.94 1018.65 1018.34 1018.06 1017.70 1017.38 1017.03 1016.68 1016.41 1016.15 1015.91 1015.66 1015.17 1015.01 1014.09 1013.18 1013.79 1013.70 1013.59 1013.47 1013.28 1012.77 1012.66 1012.56 1012.19 1012.64 1013.47 1014.37 1014.73 1015.51 1016.13 1016.98 1017.55 1017.92 1018.29
1020.82 1020.75 1020.77 1020.80 1020.73 1020.60 1020.43 1020.26 1020.08 1019.87 1019.60 1019.30 1018.98 1018.61 1018.31 1017.99 1017.63 1017.22 1016.79 1016.38 1016.14 1015.89 1015.61 1015.41 1015.18 1014.43 1013.45 1013.93 1013.88 1013.70 1013.76 1013.70 1013.49 1013.12 1013.13 1013.05 1013.14 1013.20 1013.90 1014.88 1015.61 1015.73 1015.96 1016.71 1017.31 1017.73 1018.15
1020.69 1020.62 1020.71 1020.69 1020.68 1020.59 1020.50 1020.33 1020.07 1019.87 1019.69 1019.38 1019.13 1018.77 1018.39 1017.92 1017.46 1016.92 1016.46 1016.15 1015.83 1015.56 1015.29 1015.24 1015.06 1014.16 1013.40 1014.15 1013.91 1013.98 1013.75 1013.82 1013.84 1013.73 1013.90 1013.96 1013.83 1014.16 1014.30 1015.33 1015.40 1015.06 1015.09 1014.97 1016.40 1017.43 1018.34
1020.33 1020.39 1020.55 1020.62 1020.60 1020.48 1020.38 1020.25 1020.08 1019.89 1019.67 1019.46 1019.20 1018.83 1018.38 1017.88 1017.38 1016.85 1016.30 1015.78 1015.42 1015.14 1015.03 1015.03 1014.75 1013.67 1013.51 1014.43 1013.94 1014.03 1013.93 1013.73 1014.02 1014.12 1014.29 1014.27 1014.03 1014.27 1014.87 1014.21 1013.84 1014.04 1013.17 1013.88 1015.63 1016.83 1017.46
1020.35 1020.35 1020.42 1020.51 1020.54 1020.50 1020.37 1020.18 1020.02 1019.86 1019.61 1019.38 1019.10 1018.70 1018.21 1017.69 1017.10 1016.43 1015.88 1015.61 1015.32 1015.26 1014.73 1014.18 1014.06 1013.86 1013.99 1013.78 1014.08 1014.10 1014.08 1014.09 1013.85 1013.96 1013.98 1013.86 1013.56 1013.34 1013.43 1013.10 1012.26 1012.62 1012.62 1013.39 1014.41 1016.15 1017.02
1020.76 1020.76 1020.74 1020.73 1020.61 1020.49 1020.36 1020.19 1020.04 1019.87 1019.65 1019.33 1018.96 1018.58 1018.09 1017.55 1016.94 1016.35 1015.24 1014.93 1015.13 1014.51 1013.86 1013.34 1013.23 1013.31 1013.74 1014.17 1014.39 1014.14 1014.24 1014.05 1013.83 1013.65 1013.00 1013.28 1013.09 1012.36 1012.99 1013.48 1013.53 1013.38 1013.28 1013.43 1014.38 1016.10 1016.42
1020.85 1020.78 1020.73 1020.79 1020.77 1020.65 1020.45 1020.19 1019.96 1019.89 1019.73 1019.42 1019.04 1018.52 1017.95 1017.33 1016.65 1016.08 1015.60 1014.14 1014.96 1015.14 1013.75 1013.67 1013.67 1013.57 1013.80 1013.91 1014.01 1014.17 1014.44 1013.97 1013.57 1013.06 1013.18 1013.27 1012.79 1013.76 1014.26 1014.31 1014.02 1013.73 1013.51 1013.38 1014.77 1015.89 1016.26
1020.77 1020.75 1020.76 1020.73 1020.65 1020.54 1020.37 1020.09 1019.78 1019.70 1019.63 1019.43 1019.12 1018.62 1017.92 1017.09 1016.36 1015.67 1014.98 1015.25 1015.14 1014.93 1013.83 1013.63 1013.61 1013.52 1013.93 1014.05 1013.78 1014.07 1014.34 1013.88 1013.47 1013.17 1013.10 1013.32 1014.20 1014.76 1014.87 1014.71 1014.40 1013.74 1014.06 1014.18 1014.83 1015.26 1015.27
1021.00 1020.87 1020.75 1020.65 1020.36 1020.49 1020.50 1020.23 1019.75 1019.65 1019.58 1019.51 1019.19 1018.67 1018.00 1016.89 1016.63 1015.54 1015.11 1015.37 1015.18 1015.10 1013.40 1013.44 1013.60 1013.84 1014.02 1014.17 1014.31 1014.86 1014.87 1014.41 1013.89 1013.50 1013.82 1014.08 1015.08 1015.27 1015.25 1015.12 1015.36 1014.77 1015.22 1015.29 1015.11 1014.81 1013.49
1021.03 1020.98 1020.92 1020.81 1020.67 1020.64 1020.48 1020.29 1019.92 1019.67 1019.42 1019.21 1019.03 1018.76 1018.15 1017.86 1016.65 1015.21 1015.55 1015.30 1015.06 1014.88 1012.89 1013.40 1013.54 1014.13 1014.01 1013.85 1014.39 1014.81 1015.30 1014.74 1013.91 1013.84 1014.36 1014.89 1015.29 1015.72 1015.64 1015.72 1016.18 1016.00 1016.22 1015.62 1015.15 1014.43 1013.58
1021.08 1021.00 1020.91 1020.83 1020.74 1020.84 1020.72 1020.44 1020.15 1019.78 1019.35 1019.05 1018.79 1018.64 1018.27 1016.90 1016.07 1015.83 1015.74 1015.46 1014.88 1013.77 1012.17 1013.02 1013.37 1013.40 1013.51 1013.77 1014.02 1014.50 1014.60 1014.98 1015.06 1014.49 1014.42 1015.06 1016.11 1016.25 1016.48 1016.80 1016.73 1016.77 1016.30 1015.53 1014.87 1013.86 1012.55
1021.02 1020.98 1020.91 1020.87 1020.79 1020.83 1020.81 1020.58 1020.26 1019.95 1019.63 1019.31 1018.92 1018.55 1018.36 1017.08 1015.66 1016.04 1015.81 1014.81 1013.52 1012.09 1012.28 1012.55 1012.62 1013.04 1012.87 1012.97 1013.37 1013.75 1014.01 1014.14 1014.18 1014.13 1013.97 1014.98 1015.74 1016.79 1017.12 1016.81 1017.01 1016.72 1015.57 1013.97 1013.35 1012.63 1011.16
1020.72 1020.82 1020.86 1020.82 1020.72 1020.62 1020.65 1020.61 1020.38 1020.03 1019.65 1019.23 1018.89 1018.57 1017.33 1016.43 1016.14 1016.25 1015.51 1014.22 1012.28 1011.47 1011.48 1012.40 1012.60 1012.71 1012.45 1012.79 1013.07 1013.40 1013.36 1013.32 1013.89 1014.17 1013.93 1013.96 1015.59 1016.64 1017.33 1017.05 1016.99 1016.32 1015.90 1014.61 1013.21 1011.69 1011.13
1020.47 1020.61 1020.74 1020.67 1020.63 1020.63 1020.53 1020.41 1020.33 1020.06 1019.70 1019.24 1018.59 1016.74 1016.11 1015.97 1016.20 1016.08 1015.12 1013.10 1011.05 1010.80 1011.53 1012.02 1012.59 1012.27 1012.16 1012.71 1013.14 1013.13 1012.85 1012.59 1013.09 1013.88 1014.09 1013.97 1015.53 1017.24 1017.77 1017.81 1017.68 1016.82 1016.18 1015.80 1014.31 1012.77 1011.56
1019.84 1020.18 1020.46 1020.56 1020.57 1020.56 1020.49 1020.31 1020.10 1019.99 1019.69 1019.31 1017.90 1016.53 1015.67 1016.04 1016.07 1015.47 1014.47 1012.51 1011.50 1012.11 1012.23 1012.00 1011.56 1011.68 1011.29 1011.83 1012.42 1012.28 1012.02 1013.00 1013.61 1014.26 1014.57 1014.35 1015.34 1016.97 1017.89 1018.21 1017.95 1017.32 1016.96 1016.04 1014.78 1013.25 1011.01
1019.56 1019.60 1019.84 1020.18 1020.37 1020.48 1020.48 1020.34 1020.05 1019.81 1019.64 1019.47 1018.01 1016.19 1016.00 1016.07 1015.79 1014.72 1013.10 1012.25 1012.03 1012.69 1012.71 1012.19 1011.49 1011.49 1011.50 1011.69 1011.93 1011.93 1012.10 1013.69 1014.17 1014.66 1014.81 1014.63 1015.19 1016.83 1017.56 1017.38 1016.75 1017.37 1016.47 1016.15 1015.56 1014.02 1012.36
1018.97 1019.37 1019.53 1019.73 1019.89 1020.04 1020.21 1020.22 1020.08 1019.87 1019.67 1019.30 1017.44 1015.90 1016.08 1015.88 1015.23 1014.08 1013.00 1012.64 1013.37 1012.83 1013.07 1012.71 1012.48 1011.83 1011.62 1011.76 1011.82 1012.15 1012.50 1013.61 1014.76 1014.95 1014.73 1014.61 1014.56 1014.95 1015.73 1016.99 1017.38 1016.99 1016.07 1015.47 1015.17 1014.38 1013.36
1018.09 1018.54 1018.90 1019.32 1019.71 1019.89 1019.94 1019.83 1019.69 1019.82 1019.69 1018.64 1016.89 1015.67 1016.28 1015.90 1013.98 1013.11 1013.43 1013.40 1013.46 1013.15 1012.82 1012.63 1012.25 1012.03 1011.79 1011.74 1012.01 1012.27 1013.39 1015.16 1015.74 1015.68 1015.54 1015.12 1014.48 1014.08 1015.32 1016.70 1017.07 1016.71 1016.21 1015.88 1015.50 1015.10 1013.35
1017.35 1017.84 1018.17 1018.62 1019.02 1019.61 1019.57 1019.69 1019.44 1019.75 1019.62 1019.34 1017.34 1015.94 1015.79 1015.80 1014.16 1013.48 1012.86 1013.15 1013.17 1012.94 1012.70 1012.61 1012.21 1012.40 1012.27 1012.00 1012.20 1012.48 1013.49 1015.29 1016.02 1016.35 1016.74 1016.29 1014.68 1013.75 1013.66 1014.14 1014.77 1015.55 1015.66 1015.73 1015.42 1014.37 1012.45
1016.50 1016.96 1017.50 1018.02 1018.44 1018.93 1019.37 1019.25 1019.12 1019.39 1019.49 1019.23 1017.61 1015.80 1015.37 1014.67 1014.22 1014.17 1013.32 1012.84 1012.60 1012.81 1013.01 1012.67 1012.33 1012.31 1012.08 1011.91 1011.82 1012.42 1013.05 1015.04 1016.04 1016.37 1016.45 1015.98 1014.63 1013.65 1013.41 1013.56 1014.30 1014.47 1014.64 1015.10 1014.70 1012.95 1012.16
1015.36 1016.15 1016.69 1017.30 1017.85 1018.45 1018.90 1018.72 1018.92 1018.96 1019.30 1018.92 1016.73 1016.33 1016.20 1015.42 1015.01 1014.39 1014.07 1013.29 1012.88 1012.45 1012.20 1012.36 1012.25 1012.06 1012.32 1011.93 1011.70 1011.65 1012.31 1013.25 1013.92 1015.77 1015.75 1015.51 1014.59 1014.12 1013.48 1013.28 1013.68 1013.89 1013.82 1013.76 1013.53 1012.98 1012.01
1014.44 1015.23 1015.85 1016.45 1017.23 1017.81 1018.30 1018.47 1018.49 1018.55 1018.74 1018.01 1016.91 1016.90 1016.26 1015.42 1014.74 1014.49 1013.86 1013.57 1013.05 1012.84 1012.55 1012.51 1012.36 1012.47 1012.38 1012.33 1012.17 1012.29 1012.88 1013.28 1013.46 1014.32 1014.85 1015.04 1014.70 1014.29 1013.14 1013.55 1013.60 1012.95 1011.97 1011.88 1011.95 1011.81 1011.51
1013.25 1014.18 1015.01 1015.64 1016.34 1016.99 1017.60 1017.99 1018.39 1018.42 1017.93 1017.67 1016.88 1016.33 1015.98 1015.09 1014.88 1014.12 1013.74 1013.74 1013.55 1013.21 1013.04 1013.12 1013.41 1012.94 1013.47 1013.51 1013.60 1013.64 1013.79 1013.95 1013.98 1014.41 1014.49 1014.56 1014.48 1014.49 1013.73 1013.18 1012.49 1010.65 1011.34 1011.65 1011.18 1011.25 1011.30
1011.84 1012.88 1013.86 1014.76 1015.45 1016.25 1016.73 1017.33 1017.67 1018.18 1018.05 1017.74 1017.30 1016.75 1015.64 1014.94 1014.59 1014.21 1014.06 1014.00 1013.74 1013.70 1013.92 1013.73 1014.28 1014.53 1014.17 1014.03 1013.90 1013.82 1013.81 1013.90 1013.90 1014.47 1015.00 1015.09 1014.82 1014.99 1014.24 1012.95 1011.25 1010.85 1011.12 1011.64 1011.49 1010.73 1010.19
1010.58 1011.67 1012.64 1013.63 1014.54 1015.40 1015.87 1016.59 1016.96 1017.56 1017.93 1017.59 1017.06 1017.04 1016.27 1015.54 1014.39 1013.94 1013.91 1013.84 1013.70 1013.60 1014.01 1014.63 1015.59 1015.44 1015.28 1014.66 1014.21 1013.33 1012.43 1012.29 1012.68 1014.53 1015.65 1015.53 1015.34 1015.04 1014.56 1013.45 1011.43 1010.80 1011.38 1011.56 1011.56 1010.46 1009.94
1009.25 1010.45 1011.54 1012.46 1013.46 1014.47 1015.08 1015.82 1016.64 1017.05 1017.75 1017.48 1016.85 1016.77 1016.41 1015.85 1014.79 1014.44 1013.72 1013.57 1013.59 1013.37 1013.64 1014.46 1015.52 1015.87 1016.05 1015.36 1014.44 1013.17 1012.01 1011.60 1011.73 1012.69 1014.39 1014.92 1014.97 1014.65 1014.02 1012.88 1010.99 1010.33 1011.27 1011.87 1011.40 1010.49 1010.32
1008.28 1009.25 1010.25 1011.36 1012.26 1013.37 1014.25 1014.98 1015.90 1016.41 1017.22 1017.53 1016.82 1016.59 1016.32 1016.00 1014.90 1015.08 1014.88 1014.29 1013.72 1013.74 1013.93 1014.72 1015.62 1015.53 1015.83 1015.32 1014.22 1013.20 1011.73 1010.87 1011.17 1010.98 1011.94 1012.74 1013.29 1013.28 1013.19 1012.22 1010.93 1010.48 1011.55 1011.33 1009.87 1009.93 1010.24
1006.83 1007.61 1008.75 1010.04 1011.14 1012.08 1013.14 1014.09 1015.04 1015.77 1016.36 1017.11 1016.97 1016.82 1017.00 1016.60 1015.36 1015.18 1015.30 1015.36 1014.98 1014.91 1014.24 1014.16 1013.81 1014.07 1013.99 1014.21 1013.56 1012.73 1011.72 1011.16 1010.66 1010.27 1010.89 1011.09 1010.49 1010.74 1010.84 1009.58 1009.26 1009.67 1009.31 1009.72 1010.17 1010.16 1010.09
Wind_Speed
4 3 3 5 7 8 9 10 11 12 13 14 13 14 13 13 14 14 12 11 12 12 10 10 10 10 7 7 6 8 3 3 5 3 5 6 8 2 3 3 1 5 6 6 6 5 5
6 4 2 3 5 6 8 9 10 10 11 12 13 13 13 13 13 14 14 13 13 12 11 11 9 8 7 6 2 6 7 2 5 4 1 4 3 5 5 4 4 5 8 9 5 6 4
7 6 4 2 3 5 7 8 9 10 11 12 13 14 14 13 13 14 14 13 13 11 11 10 9 5 6 7 2 6 7 6 4 2 4 4 4 3 4 5 5 10 7 6 6 6 3
7 7 5 2 1 3 5 7 7 8 11 12 14 15 15 15 15 14 14 14 12 11 8 7 6 7 3 3 2 2 2 8 11 13 11 8 9 7 2 9 6 5 5 6 8 6 4
8 7 5 2 0 3 4 6 7 8 9 12 13 15 16 17 17 18 16 14 10 5 2 3 5 6 5 3 4 2 3 3 6 6 6 4 1 4 6 7 6 6 5 1 7 7 3
9 5 3 4 2 3 5 6 6 7 8 10 12 13 15 17 17 18 17 8 3 2 4 5 3 6 5 2 4 2 2 2 2 3 5 5 4 6 6 7 5 7 6 0 4 7 7
8 8 8 5 4 4 6 7 7 7 8 9 10 13 15 18 19 17 12 5 6 6 6 5 5 4 4 5 4 2 1 4 4 7 8 3 7 3 8 4 5 5 5 6 4 3 7
6 7 6 5 5 7 8 9 7 6 7 9 12 13 16 19 20 14 7 2 5 5 3 0 1 3 2 1 3 4 3 5 4 7 2 7 5 6 3 2 4 4 6 3 4 1 5
5 5 5 3 5 9 10 11 10 3 6 10 13 14 17 20 18 6 7 4 4 2 6 5 1 2 2 4 2 4 3 1 4 6 5 8 6 3 2 4 7 5 6 4 4 3 10
1 2 3 4 10 9 10 11 8 5 8 11 12 14 17 24 4 3 2 4 3 3 6 7 4 4 4 1 4 2 3 3 4 4 2 3 3 3 4 7 6 9 3 2 4 5 3
3 2 1 3 7 7 8 11 10 8 8 6 9 13 16 13 8 3 5 6 2 4 6 3 5 3 2 4 3 4 2 3 5 2 4 4 2 3 6 4 4 5 3 5 5 7 7
4 3 2 3 3 6 8 10 12 11 10 8 8 10 15 2 4 4 7 6 5 7 2 5 4 5 7 6 4 4 3 1 3 3 3 3 1 1 5 1 1 1 7 7 4 5 6
5 4 4 4 2 2 6 9 10 11 13 14 12 11 9 5 3 7 8 5 7 7 3 6 4 5 7 6 7 6 6 7 5 5 8 5 4 3 2 4 3 4 8 4 5 5 3
8 7 5 5 4 3 4 7 9 10 12 13 15 14 6 5 5 6 6 7 9 4 2 3 2 4 6 6 3 5 4 9 7 7 6 6 5 4 2 2 5 2 5 5 5 3 5
10 9 7 5 5 4 5 6 8 11 12 14 18 6 4 3 2 3 6 10 3 3 4 6 4 6 6 5 3 6 9 8 3 9 6 4 3 3 2 2 3 4 3 4 7 2 4
12 11 9 6 4 3 4 6 7 9 12 13 5 4 3 2 3 5 7 13 3 1 2 4 6 4 3 7 6 6 6 3 3 2 1 3 4 1 3 3 2 4 3 3 4 4 5
14 13 12 10 7 5 5 6 6 7 11 12 5 5 5 3 5 6 11 15 8 4 5 5 3 4 4 3 8 5 0 4 2 4 4 1 3 4 2 7 1 5 4 4 4 3 5
17 15 14 13 10 8 6 5 6 7 12 6 4 5 2 5 7 7 12 8 5 7 6 4 4 5 5 3 5 5 3 2 2 6 5 3 3 5 2 3 2 4 3 4 3 2 2
20 18 17 15 12 10 8 5 3 5 7 5 4 1 2 6 8 11 8 4 4 7 8 7 8 7 4 5 5 7 2 3 2 5 2 5 6 4 6 4 2 5 6 6 1 1 8
22 21 19 18 14 11 10 7 3 3 5 4 2 5 5 6 6 10 14 14 13 9 12 9 6 5 7 7 6 2 5 3 3 3 2 2 4 8 8 7 2 4 7 10 10 5 7
24 22 21 20 17 14 13 10 6 3 2 2 4 4 4 7 11 12 11 3 14 11 10 9 10 14 12 11 11 8 5 5 4 5 4 4 7 9 11 9 6 9 10 12 15 21 13
25 23 22 21 19 17 16 13 10 6 2 3 3 4 2 3 4 12 13 11 15 12 12 12 14 12 17 17 14 7 13 9 9 9 7 6 5 2 11 8 9 13 14 16 19 20 20
27 25 24 22 20 19 18 15 14 11 7 4 3 1 4 4 7 8 13 14 15 14 10 14 9 15 12 13 11 7 5 3 2 6 11 7 5 4 12 1 4 11 19 18 11 11 10
29 27 25 24 23 21 20 18 15 13 12 2 3 3 4 5 8 11 5 9 15 15 15 5 7 11 1 4 6 3 1 2 5 6 7 7 10 2 7 9 12 6 2 4 12 9 12
30 29 28 27 25 23 22 21 18 16 13 5 2 4 4 7 8 13 12 11 7 10 10 10 2 4 5 5 3 5 5 4 8 5 8 6 8 3 5 11 16 17 5 5 5 1 3
32 31 30 29 27 25 23 22 21 18 15 8 6 1 3 4 8 13 11 13 11 9 8 7 1 3 2 3 3 7 8 8 7 5 3 5 7 6 5 5 8 3 4 3 2 6 4
31 32 32 31 29 27 25 24 22 19 16 8 4 9 3 5 6 4 10 11 12 9 7 5 6 5 2 4 6 7 12 7 9 8 8 6 6 9 12 9 10 8 8 5 5 2 2
32 33 33 32 31 29 27 26 23 21 19 10 3 9 3 4 4 3 7 7 6 9 9 6 4 3 3 7 6 9 10 11 14 14 9 11 10 7 7 7 13 10 6 8 3 4 1
34 35 35 34 33 31 29 27 25 23 22 15 5 7 3 2 2 4 7 10 5 4 7 7 4 3 7 6 8 6 6 5 10 11 8 10 10 6 11 9 3 11 7 5 1 2 4
Wind_Direction
283 313 3 11 22 24 25 22 21 15 12 6 2 358 354 349 347 343 337 333 329 322 317 318 314 312 278 225 65 24 356 195 263 242 253 244 255 242 265 86 72 79 112 89 100 115 107
263 265 306 355 7 17 20 19 19 14 10 4 359 356 348 344 339 336 330 326 323 318 314 311 303 310 259 259 45 1 357 325 359 250 160 268 339 45 91 56 354 104 119 122 137 136 139
300 234 229 275 350 6 9 13 11 7 7 1 358 349 346 338 332 326 322 317 315 309 303 299 293 276 255 60 45 29 54 43 14 316 102 84 82 308 134 116 122 139 130 149 171 172 127
278 237 222 224 321 350 356 358 2 360 358 356 354 347 342 333 328 319 316 312 306 300 296 274 275 262 54 109 66 164 60 72 70 81 96 88 92 87 25 116 153 224 218 218 142 181 133
257 214 197 199 331 340 343 341 346 355 355 352 351 344 337 332 327 320 314 306 291 277 250 203 251 264 118 138 180 93 304 92 100 102 88 131 131 108 155 225 196 195 313 268 158 203 143
62 89 119 121 76 354 334 333 334 339 347 350 344 338 331 327 324 320 312 280 260 221 206 213 257 250 167 138 114 134 102 197 279 167 175 220 210 229 221 236 345 345 308 172 314 151 224
85 77 79 59 39 358 327 325 327 327 340 341 341 337 330 328 324 321 311 199 199 182 212 343 28 66 117 96 183 152 139 212 238 241 265 167 265 280 10 357 339 319 303 296 98 107 274
93 91 81 50 28 7 345 333 311 317 337 340 338 337 331 328 324 315 275 340 43 352 252 169 219 127 85 256 189 145 229 227 215 265 261 224 246 51 38 314 290 283 292 312 109 156 255
83 73 64 40 41 23 4 344 304 285 327 341 336 337 334 328 325 289 55 52 322 260 253 121 140 232 109 215 291 132 248 229 261 262 271 293 50 97 279 270 278 244 291 337 322 304 242
28 69 59 34 42 20 2 353 357 325 317 332 335 335 335 326 304 359 92 350 305 263 263 126 156 117 163 246 205 1 351 298 208 294 297 352 79 257 260 279 312 290 67 297 293 287 347
261 290 349 4 33 359 352 357 358 347 328 327 341 330 330 329 324 261 24 329 293 232 273 103 130 57 153 224 116 117 355 238 262 180 241 75 190 245 262 23 337 16 302 280 282 269 298
256 283 311 333 79 352 346 342 347 352 345 330 329 321 327 158 249 355 323 307 232 229 227 131 134 168 184 191 159 133 180 76 346 214 218 54 107 303 7 77 2 31 265 241 249 252 231
249 266 289 303 298 360 338 337 340 343 344 337 328 311 303 302 1 338 311 233 226 252 135 145 173 191 215 178 189 204 193 192 235 228 204 163 168 120 254 248 183 237 268 234 199 208 17
236 242 257 278 286 248 310 328 333 337 334 328 314 310 193 270 310 315 265 231 243 37 190 89 162 186 214 160 207 196 222 239 210 259 298 268 207 188 120 318 342 300 320 310 300 318 348
236 240 243 251 255 272 296 308 323 335 335 329 308 208 233 135 269 246 246 220 283 212 101 164 170 231 179 188 289 216 228 259 19 205 257 282 131 120 30 326 302 109 247 4 295 223 265
224 229 228 228 231 263 293 305 316 323 329 333 300 255 185 92 208 213 234 245 248 55 165 192 235 230 247 164 208 201 186 107 171 216 133 41 257 210 108 243 179 273 351 243 191 303 285
222 217 213 215 221 241 280 300 319 317 319 325 253 223 103 208 223 213 226 227 238 205 237 223 234 215 249 207 241 223 300 126 199 149 201 251 238 118 203 203 156 164 198 214 290 266 304
218 221 217 211 210 212 247 291 312 323 327 291 284 226 100 204 201 219 234 223 17 221 224 248 283 269 252 199 233 247 254 44 142 174 178 161 295 260 36 89 356 303 298 249 256 155 239
216 215 215 213 214 217 224 244 275 313 348 311 242 221 143 238 216 207 217 241 238 225 214 204 232 235 214 225 239 228 211 84 166 210 213 163 198 252 174 177 174 236 202 247 176 216 239
215 214 213 210 209 215 210 221 218 289 342 275 265 211 163 216 273 275 213 225 223 214 245 231 251 220 211 223 226 228 204 139 174 219 16 291 276 262 283 1 83 195 202 215 219 222 250
209 210 212 213 207 200 208 205 192 203 326 248 227 246 5 202 219 229 246 233 221 219 221 226 232 229 222 238 216 220 196 155 180 166 200 246 263 264 271 282 238 262 253 207 211 231 259
205 208 209 211 208 202 206 199 195 180 189 238 212 217 193 326 320 231 218 235 233 230 206 216 233 219 234 241 237 247 220 209 212 177 193 194 260 267 276 265 259 257 260 248 232 253 264
205 205 207 207 207 200 204 200 192 182 200 190 181 189 280 140 207 211 225 236 243 239 222 247 246 239 234 252 270 319 318 327 286 179 194 186 223 241 272 55 272 264 241 234 226 225 242
203 203 204 206 204 198 200 199 199 197 212 126 233 233 216 240 221 224 233 248 249 234 250 214 248 247 100 115 103 106 133 244 209 211 234 212 217 219 274 279 262 270 104 310 234 247 243
202 201 201 203 201 198 196 199 197 204 202 206 201 229 220 248 237 235 237 231 238 247 239 252 172 6 154 161 203 207 205 223 213 208 209 239 207 225 238 249 279 296 211 174 172 40 137
201 202 200 200 200 198 193 197 196 199 197 218 197 213 254 247 241 238 220 223 226 220 200 219 133 196 224 215 209 227 219 225 179 173 221 208 261 238 175 240 257 48 135 170 191 240 135
199 203 201 197 197 198 192 193 197 191 191 209 217 189 211 215 246 228 211 229 220 232 235 148 167 174 249 202 232 231 239 252 217 202 177 184 193 211 226 243 263 291 150 167 237 358 101
206 204 200 197 194 195 192 190 194 189 190 200 222 202 176 216 232 211 248 214 205 226 219 114 148 182 174 205 226 222 244 227 237 248 168 175 173 187 207 219 251 141 126 220 89 124 256
211 203 197 196 193 192 191 190 191 190 187 190 223 199 131 246 345 337 280 282 294 331 262 174 226 139 190 197 215 231 227 249 238 243 180 230 211 194 196 207 142 185 249 230 354 302 300